sat.trackr.live / text

‹ back to catalog

STARLINK-11347 [DTC]

NORAD 63054 · 2025-035C

PAYLOAD ACTIVE UNKNOWN

§ Identity

Operator
Country
US
Launch date
2025-02-21
Launch site
AFETR
Launch vehicle
Mass (kg)
RCS (m²)

Purposes: comms

External: N2YO · Heavens-Above · Gunter

§ Orbital elements

Epoch: 2026-09-21T07:28:01.644096Z

Period
91.67 min
Inclination
42.9996°
Eccentricity
0.0001297
Mean motion
15.70809939 rev/d
Perigee alt
355.7 km
Apogee alt
357.5 km
Semi-major
6,734.7 km
B*
-1.6827e-4
RAAN
276.5055°
Arg perigee
245.8891°
Mean anomaly
114.1841°
Rev number
9,198

§ Raw data

STARLINK-11347 [DTC]1 63054U 25035C   26264.31113014 -.00021955  00000+0 -16827-3 0  99972 63054  42.9996 276.5055 0001297 245.8891 114.1841 15.70809939 91983

JSON: /api/v1/satellites/63054 · /tle

For live sub-satellite position, see the globe view (requires WebGL).

§ Visibility from observer

Set your observer location to see the next 7 days of passes ≥ 10°. The values pass through the URL so the page stays shareable.

No JS? Fill the form by hand. The geolocation button needs JavaScript.